FW1683 Weather Reports


time (UTC)temp
F
wind
direction
speed
knots
gust
knots
rain 1hr
in
rain 24hr
in
rain mn
in
humidity
%
barometer
mb
20220811230004 82 270 3.5 6.1 0.00 0.00 0.00 100 1007.5
20220811225004 82 280 3.5 7.0 0.00 0.00 0.00 100 1007.4
20220811223004 82 306 5.2 8.7 0.00 0.00 0.00 100 1007.4
20220811221006 82 351 2.6 6.1 0.00 0.00 0.00 100 1007.3
20220811220004 82 15 4.3 7.8 0.00 0.00 0.00 100 1007.3
20220811214004 82 20 3.5 7.0 0.00 0.00 0.00 100 1007.2
20220811213003 82 23 2.6 5.2 0.00 0.00 0.00 99 1007.2
20220811211005 83 23 3.5 7.0 0.00 0.00 0.00 95 1007.1
20220811203005 83 82 3.5 7.8 0.00 0.00 0.00 90 1006.7
20220811202005 83 113 2.6 4.3 0.00 0.00 0.00 84 1006.6
20220811201004 83 113 1.7 4.3 0.00 0.00 0.00 78 1006.5
20220811200005 83 87 2.6 7.0 0.00 0.00 0.00 76 1006.4
20220811195005 83 23 2.6 6.1 0.00 0.00 0.00 81 1006.2
20220811194004 84 23 1.7 4.3 0.00 0.00 0.00 80 1006.1
20220811191004 84 49 4.3 8.7 0.00 0.00 0.00 76 1005.7
20220811185003 84 90 3.5 7.8 0.00 0.00 0.00 76 1005.7
20220811184005 85 104 4.3 9.6 0.00 0.00 0.00 78 1005.5
20220811183004 85 130 5.2 10.4 0.00 0.00 0.00 78 1005.5
20220811182005 86 100 5.2 12.2 0.00 0.00 0.00 75 1005.5
20220811180004 86 106 4.3 9.6 0.00 0.00 0.00 74 1005.5
20220811173004 88 132 5.2 13.0 0.00 0.00 0.00 70 1005.5
20220811165004 89 112 7.0 13.9 0.00 0.00 0.00 64 1005.6
20220811155004 91 116 6.1 12.2 0.00 0.00 0.00 52 1005.9
20220811145004 92 96 7.0 13.0 0.00 0.00 0.00 45 1006.3
20220811143003 92 147 7.0 13.0 0.00 0.00 0.00 39 1006.5
20220811142005 91 151 7.8 13.0 0.00 0.00 0.00 41 1006.6
20220811141004 91 139 7.8 14.8 0.00 0.00 0.00 42 1006.7
20220811135004 93 123 6.1 12.2 0.00 0.00 0.00 43 1006.9
20220811132003 93 128 6.1 13.0 0.00 0.00 0.00 42 1007.0
20220811131004 93 106 7.0 14.8 0.00 0.00 0.00 36 1007.0
20220811125004 92 117 6.1 11.3 0.00 0.00 0.00 36 1007.1
20220811123004 92 97 6.1 13.0 0.00 0.00 0.00 48 1007.2
20220811115003 91 118 7.0 13.0 0.00 0.00 0.00 55 1007.2
20220811113004 88 142 7.8 15.6 0.00 0.00 0.00 66 1007.3
20220811112004 89 151 7.0 14.8 0.00 0.00 0.00 62 1007.3
20220811111005 90 141 6.1 11.3 0.00 0.00 0.00 56 1007.2
20220811103004 90 91 5.2 9.6 0.00 0.00 0.00 47 1007.3
20220811101004 90 108 5.2 8.7 0.00 0.00 0.00 48 1007.4
20220811100005 91 111 3.5 7.0 0.00 0.00 0.00 41 1007.4
20220811095004 90 116 4.3 7.8 0.00 0.00 0.00 43 1007.4
20220811094004 90 113 2.6 6.1 0.00 0.00 0.00 43 1007.4
20220811083005 87 282 2.6 5.2 0.00 0.00 0.00 43 1007.5
20220811074004 82 293 3.5 7.0 0.00 0.00 0.00 55 1007.5
20220811073003 82 297 2.6 7.0 0.00 0.00 0.00 59 1007.5
20220811071005 79 350 3.5 7.0 0.00 0.00 0.00 70 1007.4
20220811070004 78 0 2.6 7.8 0.00 0.00 0.00 73 1007.3
20220811065004 78 0 2.6 6.1 0.00 0.00 0.00 79 1007.2
20220811064004 77 0 2.6 6.1 0.00 0.00 0.00 83 1007.2
20220811063004 76 352 3.5 7.0 0.00 0.00 0.00 85 1007.2
20220811062003 76 313 2.6 6.1 0.00 0.00 0.00 89 1007.2
20220811060004 74 334 4.3 8.7 0.00 0.00 0.00 95 1007.0
20220811054004 75 313 2.6 5.2 0.00 0.00 0.00 92 1006.8
20220811053007 75 314 2.6 6.1 0.00 0.00 0.00 88 1006.9
20220811051007 75 341 2.6 8.7 0.00 0.00 0.00 79 1006.7
20220811050008 75 308 3.5 10.4 0.00 0.00 0.00 78 1006.8
20220811044004 75 293 3.5 7.0 0.00 0.00 0.00 77 1006.8
20220811043004 75 293 3.5 5.2 0.00 0.00 0.00 77 1006.7
20220811042004 75 293 2.6 6.1 0.00 0.00 0.00 79 1006.7
20220811040009 75 298 5.2 10.4 0.00 0.00 0.00 81 1006.6
20220811035005 75 315 5.2 9.6 0.00 0.00 0.00 83 1006.7
20220811034006 75 357 5.2 7.8 0.00 0.00 0.00 86 1006.7
20220811031005 76 336 2.6 7.0 0.00 0.00 0.00 89 1006.9
20220811023005 77 313 3.5 7.0 0.00 0.00 0.00 91 1006.9
20220811021011 77 312 5.2 11.3 0.00 0.00 0.00 86 1007.0
20220811015005 77 317 4.3 7.8 0.00 0.00 0.00 87 1006.8
20220811014007 77 331 4.3 7.8 0.00 0.00 0.00 87 1006.8
20220811011006 78 314 3.5 7.0 0.00 0.00 0.00 78 1006.9
20220811005006 78 313 3.5 7.0 0.00 0.00 0.00 91 1007.0
20220811004003 79 311 3.5 7.8 0.00 0.00 0.00 95 1007.0
20220811001009 80 23 0.9 3.5 0.00 0.00 0.00 99 1007.0
20220810235004 80 23 2.6 5.2 0.00 0.00 0.00 98 1007.1